FLYING LAPTOP

Last updated on Tue Oct 21 2025 00:03:39 GMT+0000 (Coordinated Universal Time)

1 42831U 17042G 25293.69001522 .00004190 00000+0 34603-3 0 9990 2 42831 97.4207 94.7893 0010163 219.5243 140.5241 14.99447181450549
UTC large
Height (km)
Speed (km/s)
/
Latitude / Longitude
Inclination (degrees)
Orbital Period (minutes)
Azimuth
Elevation
Range (km)
Doppler Factor

Next 0 passes for location: London (51.5072 / 0.1276)

Sorry there are no passes over London.